1505743200.23,63170,15.56,73710.3,3.05,-8.11,-7.49,0,*7A
1505743201.45,63171,15.5,73708.8,3.05,-8.11,-7.53,0,*70
1505743202.64,63172,15.5,73708.0,3.05,-8.25,-7.49,0,*7F
1505743203.83,63173,15.5,73710.3,3.05,-8.55,-7.53,0,*72
1505743205.05,63174,15.56,73708.8,3.07,-8.55,-7.53,0,*77
1505743206.26,63175,15.56,73708.5,3.07,-8.67,-7.53,0,*77
1505743207.48,63176,15.5,73708.5,3.07,-8.85,-7.53,0,*78
1505743208.73,63177,15.56,73710.0,3.07,-9.61,-8.03,0,*78
1505743209.94,63178,15.56,73710.3,3.07,-9.93,-8.29,0,*72
1505743211.16,63179,15.56,73712.0,3.11,-10.15,-8.25,0,*4E
1505743212.34,63180,15.5,73710.0,3.09,-10.53,-8.29,0,*4F
1505743213.53,63181,15.56,73708.0,3.09,-10.89,-8.29,0,*49
1505743214.72,63182,15.56,73710.5,3.09,-11.23,-8.37,0,*44
1505743215.94,63183,15.56,73708.8,3.11,-11.15,-8.21,0,*4E
1505743217.13,63184,15.5,73708.3,3.09,-11.15,-8.21,0,*40
1505743218.37,63185,15.5,73708.3,3.11,-11.81,-8.41,0,*43
1505743219.61,63186,15.5,73710.0,3.15,-12.65,-9.05,0,*4C
1505743220.85,63187,15.5,73708.0,3.13,-12.79,-9.15,0,*47
1505743222.07,63188,15.56,73712.5,3.13,-13.01,-9.05,0,*47
1505743223.29,63189,15.5,73706.0,3.15,-13.51,-9.19,0,*48
1505743224.53,63190,15.5,73708.0,3.15,-14.33,-9.83,0,*40
1505743225.75,63191,15.56,73710.0,3.15,-15.15,-9.97,0,*41
1505743226.97,63192,15.56,73710.5,3.15,-15.75,-10.49,0,*7F
1505743228.2,63193,15.5,73710.0,3.15,-15.63,-10.01,0,*75
1505743229.41,63194,15.5,73710.0,3.15,-15.67,-9.79,0,*41
1505743230.66,63195,15.56,73710.0,3.15,-16.23,-10.01,0,*74
1505743231.9,63196,15.5,73708.5,3.15,-16.27,-9.97,0,*44
1505743233.12,63197,15.5,73708.0,3.17,-16.31,-9.79,0,*40
1505743234.32,63198,15.56,73708.8,3.17,-16.37,-9.67,0,*46
1505743235.55,63199,15.5,73710.8,3.17,-17.41,-10.23,0,*7F
1505743236.75,63200,15.5,73708.8,3.17,-18.07,-10.15,0,*74
1505743237.98,63201,15.5,73708.3,3.17,-18.89,-10.45,0,*76
1505743239.2,63202,15.5,73708.5,3.19,-20.25,-10.89,0,*76
1505743240.43,63203,15.5,73708.3,3.17,-20.83,-11.41,0,*70
1505743241.68,63204,15.56,73712.3,3.19,-19.61,-11.11,0,*7A
1505743242.9,63205,15.5,73710.5,3.19,-18.25,-10.57,0,*79
1505743244.15,63206,15.5,73708.8,3.19,-17.21,-10.31,0,*71
1505743245.39,63207,15.56,73710.3,3.19,-16.31,-9.89,0,*4B
1505743246.61,63208,15.5,73708.8,3.21,-15.71,-9.61,0,*4E
1505743247.81,63209,15.5,73708.0,3.25,-15.53,-9.71,0,*4A
1505743249.04,63210,15.56,73714.0,3.21,-14.97,-9.61,0,*4E
1505743250.24,63211,15.5,73708.0,3.21,-15.25,-9.97,0,*4E
1505743251.44,63212,15.5,73708.5,3.25,-14.61,-10.01,0,*7F
1505743252.71,63213,15.5,73710.5,3.27,-13.37,-9.45,0,*40
1505743253.95,63214,15.56,73712.0,3.27,-13.29,-9.71,0,*4F
1505743255.2,63215,15.56,73710.3,3.27,-12.75,-9.71,0,*46
1505743256.43,63216,15.5,73708.0,3.29,-12.71,-10.09,0,*78
1505743257.66,63217,15.5,73708.0,3.29,-12.83,-10.19,0,*75
1505743258.9,63218,15.56,73712.3,3.31,-12.83,-10.23,0,*7A
1505743260.15,63219,15.5,73708.8,3.31,-12.57,-10.05,0,*76
1505743261.43,63220,15.56,73710.3,3.33,-12.11,-9.83,0,*4A
1505743262.69,63221,15.5,73710.5,3.33,-12.53,-10.15,0,*7A
1505743263.96,63222,15.5,73710.8,3.33,-12.65,-10.15,0,*7C
1505743265.2,63223,15.56,73712.3,3.35,-13.19,-10.41,0,*70
1505743266.46,63224,15.5,73708.5,3.37,-12.65,-9.57,0,*40
1505743267.74,63225,15.56,73710.5,3.37,-12.53,-9.53,0,*40
1505743268.98,63226,15.56,73712.3,3.37,-11.89,-8.75,0,*42
1505743270.24,63227,15.56,73712.3,3.41,-11.19,-8.07,0,*4E
1505743271.48,63228,15.5,73710.0,3.43,-10.75,-7.57,0,*42
1505743272.76,63229,15.5,73708.5,3.45,-10.71,-7.43,0,*44
1505743274.01,63230,15.5,73710.3,3.45,-10.85,-7.43,0,*47
1505743275.26,63231,15.5,73708.8,3.51,-10.41,-6.97,0,*43
1505743276.45,63232,15.5,73708.8,3.55,-9.93,-6.51,0,*79
1505743277.66,63233,15.5,73708.8,3.55,-9.37,-6.05,0,*77
1505743278.89,63234,15.5,73710.8,3.55,-9.31,-6.19,0,*7B
1505743280.11,63235,15.56,73710.0,3.59,-8.55,-5.61,0,*79
1505743281.32,63236,15.56,73710.8,3.61,-8.29,-5.43,0,*7A
1505743282.53,63237,15.56,73712.8,3.61,-7.49,-4.99,0,*74
1505743283.71,63238,15.5,73708.8,3.63,-6.69,-4.41,0,*7F
1505743284.91,63239,15.5,73710.3,3.65,-6.31,-4.21,0,*73
1505743286.16,63240,15.56,73710.8,3.67,-5.85,-3.95,0,*7B
1505743287.35,63241,15.56,73712.3,3.73,-5.51,-3.75,0,*78
1505743288.59,63242,15.5,73710.8,3.73,-5.31,-3.63,0,*7A
1505743289.82,63243,15.5,73710.5,3.73,-5.03,-3.63,0,*7A
1505743291.07,63244,15.5,73708.8,3.75,-4.73,-3.47,0,*7B
1505743292.25,63245,15.56,73710.0,3.77,-4.49,-3.35,0,*74
1505743293.48,63246,15.5,73708.3,3.79,-4.49,-3.55,0,*7F
1505743294.69,63247,15.56,73710.5,3.81,-4.21,-3.43,0,*70
1505743295.92,63248,15.56,73714.5,3.83,-4.05,-3.47,0,*7F
1505743297.1,63249,15.5,73710.0,3.85,-4.37,-3.95,0,*76
1505743298.31,63250,15.56,73710.8,3.85,-4.77,-4.37,0,*75
1505743299.55,63251,15.5,73708.3,3.87,-4.89,-4.61,0,*74
1505743300.76,63252,15.56,73710.0,3.89,-4.89,-4.61,0,*79
1505743301.97,63253,15.5,73710.3,3.89,-4.85,-4.37,0,*77
1505743303.21,63254,15.56,73712.3,3.93,-5.07,-4.69,0,*7B
1505743304.45,63255,15.5,73710.0,3.93,-5.31,-4.73,0,*74
1505743305.69,63256,15.5,73710.0,3.95,-5.27,-4.61,0,*75
1505743306.91,63257,15.56,73708.8,3.95,-4.93,-4.17,0,*7B
1505743308.14,63258,15.5,73708.5,3.95,-4.69,-4.13,0,*75
1505743309.35,63259,15.56,73710.8,3.95,-4.61,-4.13,0,*7C
1505743310.55,63260,15.56,73712.0,3.99,-4.33,-4.09,0,*76
1505743311.79,63261,15.5,73708.3,3.97,-4.29,-4.01,0,*7A
1505743313.01,63262,15.56,73710.0,3.99,-4.25,-4.01,0,*7B
1505743314.2,63263,15.56,73710.3,3.99,-4.09,-3.79,0,*7C
1505743315.42,63264,15.56,73710.5,3.99,-3.95,-3.71,0,*71
1505743316.67,63265,15.56,73712.8,4.01,-4.21,-4.01,0,*7E
1505743317.89,63266,15.5,73710.3,4.01,-4.25,-4.09,0,*71
1505743319.11,63267,15.5,73710.3,4.01,-3.95,-3.79,0,*7C
1505743320.36,63268,15.56,73708.0,4.01,-4.01,-3.83,0,*7C
1505743321.62,63269,15.56,73710.0,4.01,-3.67,-3.47,0,*72
1505743322.83,63270,15.5,73710.5,4.03,-3.43,-3.19,0,*75
1505743324.02,63271,15.56,73708.8,4.03,-3.39,-3.31,0,*73
1505743325.2,63272,15.56,73712.8,4.03,-3.31,-3.31,0,*78
1505743326.39,63273,15.56,73712.0,4.03,-3.19,-3.31,0,*73
1505743327.57,63274,15.56,73708.8,4.03,-2.79,-2.87,0,*7F
1505743328.79,63275,15.56,73710.5,4.07,-2.63,-2.83,0,*75
1505743330.06,63276,15.56,73712.0,4.05,-2.51,-2.75,0,*7C
1505743331.3,63277,15.56,73710.5,4.05,-2.51,-2.83,0,*74
1505743332.52,63278,15.5,73708.3,4.07,-2.07,-2.35,0,*77
1505743333.74,63279,15.56,73710.5,4.07,-1.99,-2.35,0,*72
1505743334.99,63280,15.56,73712.0,4.07,-2.11,-2.47,0,*72
1505743336.23,63281,15.56,73710.0,4.09,-1.95,-2.35,0,*77
1505743337.48,63282,15.5,73708.5,4.11,-2.11,-2.47,0,*77
1505743338.7,63283,15.5,73710.0,4.11,-1.91,-2.31,0,*7C
1505743339.92,63284,15.56,73710.5,4.11,-1.71,-2.11,0,*77
1505743341.12,63285,15.5,73708.5,4.11,-1.71,-2.19,0,*7E
1505743342.36,63286,15.56,73710.8,4.13,-2.15,-2.55,0,*76
1505743343.6,63287,15.56,73712.5,4.13,-2.19,-2.51,0,*7F
1505743344.84,63288,15.56,73708.0,4.13,-2.31,-2.67,0,*7F
1505743346.11,63289,15.56,73712.0,4.13,-2.03,-2.51,0,*7A
1505743347.39,63290,15.56,73714.0,4.17,-2.03,-2.51,0,*76
1505743348.63,63291,15.56,73710.5,4.17,-2.15,-2.75,0,*76
1505743349.87,63292,15.56,73714.5,4.17,-2.23,-2.63,0,*77
1505743351.15,63293,15.5,73708.3,4.17,-2.03,-2.51,0,*75
1505743352.39,63294,15.5,73710.5,4.13,-1.67,-2.07,0,*74
1505743353.6,63295,15.56,73712.3,4.17,-1.63,-2.15,0,*76
1505743354.85,63296,15.56,73710.8,4.17,-1.87,-2.39,0,*71
1505743356.09,63297,15.56,73712.3,4.17,-1.59,-2.11,0,*79
1505743357.3,63298,15.56,73710.8,4.17,-1.59,-2.23,0,*77
1505743358.54,63299,15.5,73708.8,4.17,-1.51,-2.11,0,*7F
1505743359.78,63300,15.5,73710.8,4.17,-1.47,-2.23,0,*78
1505743361.05,63301,15.5,73708.8,4.17,-1.35,-2.11,0,*7D
1505743362.3,63302,15.56,73710.8,4.21,-1.71,-2.47,0,*78
1505743363.56,63303,15.5,73710.0,4.21,-1.95,-2.71,0,*76
1505743364.8,63304,15.56,73710.3,4.21,-1.99,-2.79,0,*75
1505743366.02,63305,15.56,73712.3,4.19,-1.99,-2.83,0,*7A
1505743367.23,63306,15.56,73710.0,4.19,-1.75,-2.71,0,*76
1505743368.41,63307,15.5,73710.3,4.19,-2.23,-3.23,0,*71
1505743369.64,63308,15.56,73712.3,4.19,-2.51,-3.47,0,*79
1505743370.83,63309,15.56,73710.5,4.19,-2.23,-3.27,0,*7B
1505743372.0,63310,15.56,73714.0,4.19,-2.27,-3.23,0,*73
1505743373.18,63311,15.5,73708.8,4.19,-2.23,-3.23,0,*76
1505743374.39,63312,15.56,73712.0,4.19,-1.87,-3.03,0,*7A
1505743375.59,63313,15.5,73710.0,4.19,-2.27,-3.63,0,*74
1505743376.81,63314,15.56,73708.3,4.19,-2.63,-3.91,0,*7E
1505743378.03,63315,15.56,73714.3,4.17,-2.87,-4.37,0,*70
1505743379.27,63316,15.5,73710.8,4.17,-2.75,-4.25,0,*7D
1505743380.49,63317,15.5,73710.3,4.17,-2.83,-4.37,0,*76
1505743381.73,63318,15.5,73708.8,4.17,-2.75,-4.37,0,*70
1505743382.95,63319,15.56,73714.5,4.17,-2.99,-4.65,0,*74
1505743384.17,63320,15.56,73712.0,4.17,-3.03,-4.65,0,*7C
1505743385.38,63321,15.56,73714.0,4.13,-2.91,-4.49,0,*7D
1505743386.6,63322,15.5,73710.5,4.13,-2.79,-4.33,0,*75
1505743387.86,63323,15.56,73712.5,4.17,-2.59,-4.01,0,*73
1505743389.1,63324,15.56,73710.0,4.13,-2.51,-3.91,0,*76
1505743390.34,63325,15.56,73712.0,4.13,-2.75,-4.05,0,*7B
1505743391.58,63326,15.56,73712.0,4.13,-2.63,-3.83,0,*76
1505743392.83,63327,15.56,73708.5,4.17,-2.63,-3.75,0,*7A
1505743394.06,63328,15.56,73708.8,4.17,-2.35,-3.59,0,*78
1505743395.3,63329,15.5,73710.3,4.17,-2.39,-3.59,0,*75
1505743396.48,63330,15.5,73710.8,4.19,-2.27,-3.27,0,*75
1505743397.67,63331,15.56,73712.0,4.19,-1.75,-2.87,0,*7B
1505743398.91,63332,15.56,73710.5,4.17,-1.59,-2.51,0,*73
1505743400.15,63333,15.56,73712.5,4.17,-1.59,-2.47,0,*75
1505743401.42,63334,15.56,73712.3,4.17,-1.13,-1.87,0,*73
1505743402.68,63335,15.56,73710.3,4.17,-1.09,-1.83,0,*7D
1505743403.89,63336,15.56,73708.0,4.19,-0.77,-1.47,0,*40
1505743405.07,63337,15.56,73710.5,4.19,-0.65,-1.29,0,*4A
1505743406.25,63338,15.56,73710.3,4.19,-0.61,-1.25,0,*4D
1505743407.43,63339,15.56,73710.3,4.19,-0.73,-1.25,0,*4F
1505743408.64,63340,15.56,73710.8,4.21,-0.73,-1.25,0,*4A
1505743409.84,63341,15.56,73710.3,4.19,-0.65,-1.09,0,*49
1505743411.05,63342,15.56,73710.5,4.19,-0.73,-1.13,0,*46
1505743412.25,63343,15.5,73708.5,4.19,-0.77,-1.13,0,*43
1505743413.47,63344,15.56,73710.5,4.21,-0.81,-1.17,0,*42
1505743414.69,63345,15.56,73710.5,4.21,-0.69,-0.85,0,*7F
1505743415.87,63346,15.56,73710.0,4.19,-0.53,-0.73,0,*77
1505743417.05,63347,15.56,73710.3,4.19,-0.49,-0.53,0,*7F
1505743418.26,63348,15.5,73708.5,4.21,-0.45,-0.49,0,*7C
1505743419.46,63349,15.56,73708.3,4.21,-0.57,-0.57,0,*71
1505743420.67,63350,15.56,73710.0,4.21,-0.73,-0.81,0,*74
1505743421.88,63351,15.56,73710.3,4.21,-0.57,-0.45,0,*7B
1505743423.08,63352,15.56,73708.8,4.21,-0.61,-0.57,0,*7E
1505743424.28,63353,15.56,73710.0,4.21,-0.45,-0.29,0,*70
1505743425.48,63354,15.56,73710.0,4.21,-0.45,-0.29,0,*77
1505743426.66,63355,15.56,73708.0,4.23,-0.37,-0.19,0,*72
1505743427.84,63356,15.56,73710.8,4.23,-0.45,-0.19,0,*74
1505743429.01,63357,15.5,73706.3,4.23,-0.33,-0.07,0,*4B
1505743430.19,63358,15.56,73710.3,4.23,-0.45,-0.11,0,*72
1505743431.4,63359,15.56,73710.8,4.23,-0.85,-0.49,0,*72
1505743432.58,63360,15.5,73704.3,4.23,-0.81,-0.37,0,*75
1505743433.76,63361,15.56,73708.3,4.23,-0.81,-0.29,0,*7B
1505743435.0,63362,15.5,73706.8,4.21,-0.85,-0.37,0,*71
1505743436.18,63363,15.56,73710.0,4.23,-1.33,-0.81,0,*43
1505743437.37,63364,15.56,73712.8,4.23,-1.59,-1.17,0,*76
1505743438.57,63365,15.5,73708.0,4.23,-1.09,-0.69,0,*4A
1505743439.75,63366,15.56,73708.3,4.19,-1.21,-0.65,0,*46
1505743440.99,63367,15.56,73708.5,4.19,-1.47,-1.01,0,*74
1505743442.19,63368,15.56,73710.8,4.19,-1.09,-0.61,0,*46
1505743443.41,63369,15.56,73708.3,4.19,-1.13,-0.73,0,*4F
1505743444.61,63370,15.56,73710.0,4.19,-0.93,-0.41,0,*7F
1505743445.8,63371,15.56,73712.0,4.19,-1.21,-0.73,0,*47
1505743447.01,63372,15.56,73708.3,4.19,-0.89,-0.49,0,*7E
1505743448.22,63373,15.56,73708.5,4.19,-0.85,-0.41,0,*7B
1505743449.42,63374,15.56,73708.3,4.19,-0.65,-0.27,0,*72
1505743450.62,63375,15.56,73708.3,4.19,-0.61,-0.23,0,*73
1505743451.83,63376,15.56,73706.3,4.19,-1.01,-0.73,0,*42
1505743453.04,63377,15.56,73710.0,4.19,-0.89,-0.73,0,*72
1505743454.27,63378,15.56,73710.8,4.17,-0.85,-0.53,0,*7D
1505743455.49,63379,15.56,73706.5,4.17,-0.73,-0.41,0,*76
1505743456.72,63380,15.56,73708.0,4.17,-0.85,-0.73,0,*78
1505743457.98,63381,15.56,73708.8,4.13,-1.05,-0.85,0,*4D
1505743459.24,63382,15.56,73708.3,4.13,-1.01,-0.89,0,*46
1505743460.46,63383,15.56,73708.3,4.13,-1.29,-1.17,0,*7B
1505743461.69,63384,15.56,73708.3,4.13,-0.93,-0.81,0,*72
1505743462.92,63385,15.56,73706.8,4.13,-0.89,-0.81,0,*78
1505743464.12,63386,15.56,73708.3,4.13,-0.57,-0.53,0,*77
1505743465.34,63387,15.56,73708.3,4.13,-1.25,-1.29,0,*7E
1505743466.56,63388,15.56,73708.8,4.11,-0.93,-0.85,0,*78
1505743467.78,63389,15.56,73710.8,4.11,-0.93,-0.93,0,*7E
1505743469.02,63390,15.56,73710.3,4.11,-1.09,-1.05,0,*7A
1505743470.25,63391,15.56,73710.8,4.11,-0.85,-0.85,0,*77
1505743471.5,63392,15.56,73708.3,4.09,-0.85,-0.93,0,*7A
1505743472.75,63393,15.56,73714.8,4.09,-0.93,-0.97,0,*78
1505743473.96,63394,15.56,73708.5,4.09,-0.73,-0.61,0,*78
1505743475.17,63395,15.56,73712.3,4.09,-0.73,-0.69,0,*71
1505743476.38,63396,15.56,73710.0,4.11,-0.85,-0.81,0,*74
1505743477.61,63397,15.56,73710.0,4.11,-1.09,-1.09,0,*71
1505743478.83,63398,15.5,73710.8,4.09,-0.81,-0.81,0,*77
1505743480.04,63399,15.56,73714.3,4.09,-0.81,-0.81,0,*76
1505743481.26,63400,15.56,73710.8,4.11,-0.85,-0.93,0,*7F
1505743482.53,63401,15.56,73710.8,4.09,-1.05,-1.09,0,*7C
1505743483.77,63402,15.56,73710.8,4.09,-1.35,-1.55,0,*75
1505743484.99,63403,15.56,73708.5,4.11,-1.29,-1.43,0,*77
1505743486.21,63404,15.56,73714.3,4.11,-1.05,-1.21,0,*7A
1505743487.46,63405,15.56,73710.8,4.09,-1.47,-1.71,0,*71
1505743488.73,63406,15.56,73710.5,4.09,-2.07,-2.59,0,*7C
1505743489.97,63407,15.56,73712.5,4.09,-2.23,-2.67,0,*76
1505743491.18,63408,15.56,73712.3,4.11,-2.71,-3.19,0,*7F
1505743492.38,63409,15.56,73710.5,4.11,-3.31,-3.83,0,*78
1505743493.56,63410,15.56,73712.0,4.11,-4.45,-4.65,0,*7B
1505743494.81,63411,15.56,73710.8,4.11,-5.27,-5.23,0,*7C
1505743496.0,63412,15.56,73712.3,4.11,-6.55,-6.01,0,*7A
1505743497.23,63413,15.56,73712.5,4.11,-7.73,-6.81,0,*76
1505743498.45,63414,15.56,73712.5,4.11,-9.01,-7.77,0,*72
1505743499.67,63415,15.56,73710.3,4.11,-9.71,-8.07,0,*7C
1505743500.87,63416,15.56,73708.3,4.11,-10.31,-8.59,0,*48
1505743502.09,63417,15.56,73712.3,4.11,-11.41,-9.37,0,*46
1505743503.36,63418,15.56,73708.3,4.09,-11.97,-9.61,0,*48
1505743504.59,63419,15.56,73714.5,4.11,-11.89,-9.79,0,*46
1505743505.81,63420,15.56,73712.5,4.09,-12.43,-9.97,0,*40
1505743507.03,63421,15.56,73710.3,4.09,-13.15,-10.05,0,*70
1505743508.26,63422,15.56,73710.8,4.11,-13.61,-10.05,0,*79
1505743509.45,63423,15.56,73710.0,4.11,-13.15,-9.71,0,*40
1505743510.71,63424,15.56,73710.0,4.11,-14.43,-11.07,0,*7B
1505743511.96,63425,15.56,73712.0,4.09,-15.95,-11.77,0,*7E
1505743513.19,63426,15.56,73708.0,4.09,-17.83,-12.89,0,*7A
1505743514.47,63427,15.56,73710.3,4.09,-18.01,-12.71,0,*79
1505743515.71,63428,15.56,73712.0,4.09,-19.81,-13.69,0,*77
1505743516.96,63429,15.56,73710.3,4.09,-20.25,-13.83,0,*76
1505743518.22,63430,15.56,73712.0,4.05,-20.35,-13.79,0,*76
1505743519.49,63431,15.56,73712.0,4.05,-20.35,-13.61,0,*7E
1505743520.74,63432,15.56,73714.8,4.05,-21.23,-13.93,0,*76
1505743521.97,63433,15.56,73714.3,4.05,-21.73,-14.23,0,*7E
1505743523.2,63434,15.56,73712.0,4.05,-21.93,-14.33,0,*76
1505743524.46,63435,15.56,73712.5,4.01,-22.87,-14.83,0,*7E
1505743525.74,63436,15.56,73712.0,4.01,-22.47,-14.47,0,*79
1505743526.97,63437,15.56,73710.3,3.97,-22.37,-14.15,0,*70
1505743528.21,63438,15.56,73710.5,3.99,-22.47,-14.29,0,*79
1505743529.43,63439,15.56,73708.8,3.99,-22.63,-14.43,0,*72
1505743530.65,63440,15.56,73708.0,3.93,-22.53,-14.05,0,*77
1505743531.87,63441,15.56,73712.0,3.93,-22.73,-14.19,0,*79
1505743533.13,63442,15.56,73708.0,3.95,-21.97,-13.37,0,*7E
1505743534.36,63443,15.56,73710.5,3.93,-21.57,-13.19,0,*79
1505743535.58,63444,15.56,73704.8,3.93,-20.93,-12.79,0,*70
1505743536.78,63445,15.56,73710.8,3.93,-21.47,-13.11,0,*76
1505743538.0,63446,15.56,73710.3,3.93,-21.57,-13.23,0,*75
1505743539.19,63447,15.56,73708.8,3.89,-21.63,-13.15,0,*7D
1505743540.41,63448,15.56,73712.3,3.87,-21.39,-12.89,0,*77
1505743541.66,63449,15.56,73712.3,3.87,-21.53,-13.11,0,*7A
1505743542.94,63450,15.56,73712.5,3.87,-21.03,-12.53,0,*70
1505743544.16,63451,15.56,73708.3,3.85,-21.03,-12.47,0,*76
1505743545.37,63452,15.56,73710.0,3.85,-20.89,-12.43,0,*72
1505743546.61,63453,15.56,73708.3,3.83,-21.09,-12.57,0,*79
1505743547.85,63454,15.56,73712.3,3.83,-21.57,-13.15,0,*72
1505743549.05,63455,15.56,73712.0,3.81,-21.63,-12.97,0,*7D
1505743550.31,63456,15.56,73712.0,3.79,-21.53,-12.89,0,*75
1505743551.53,63457,15.56,73710.0,3.81,-21.17,-12.53,0,*74
1505743552.78,63458,15.56,73708.3,3.79,-20.83,-12.39,0,*7C
1505743554.01,63459,15.56,73708.5,3.77,-20.83,-12.39,0,*73
1505743555.26,63460,15.56,73712.0,3.75,-21.03,-12.47,0,*7B
1505743556.45,63461,15.56,73710.3,3.77,-20.73,-12.39,0,*77
1505743557.73,63462,15.56,73714.8,3.75,-20.79,-12.35,0,*70
1505743559.0,63463,15.56,73710.5,3.71,-20.49,-12.11,0,*70
1505743560.23,63464,15.56,73710.0,3.73,-19.99,-11.73,0,*75
1505743561.49,63465,15.56,73708.0,3.73,-19.57,-11.51,0,*76
1505743562.74,63466,15.56,73710.5,3.71,-19.47,-11.51,0,*76
1505743563.99,63467,15.56,73708.5,3.73,-19.23,-11.37,0,*77
1505743565.25,63468,15.56,73708.5,3.71,-19.27,-11.41,0,*7F
1505743566.45,63469,15.56,73710.0,3.73,-19.07,-11.19,0,*73
1505743567.71,63470,15.56,73708.8,3.71,-19.13,-11.37,0,*70
1505743568.94,63471,15.56,73712.0,3.71,-19.99,-12.21,0,*77
1505743570.21,63472,15.56,73710.5,3.71,-19.85,-11.97,0,*77
1505743571.44,63473,15.56,73710.8,3.73,-19.51,-11.85,0,*7E
1505743572.66,63474,15.56,73710.5,3.73,-19.81,-12.03,0,*79
1505743573.91,63475,15.56,73710.5,3.71,-19.07,-11.55,0,*74
1505743575.16,63476,15.56,73710.3,3.71,-18.69,-11.81,0,*77
1505743576.43,63477,15.56,73708.3,3.67,-19.13,-12.11,0,*77
1505743577.67,63478,15.56,73708.0,3.65,-18.89,-11.81,0,*72
1505743578.88,63479,15.56,73710.0,3.65,-17.69,-11.01,0,*7A
1505743580.14,63480,15.56,73708.8,3.65,-17.17,-11.29,0,*7F
1505743581.39,63481,15.56,73708.8,3.65,-16.13,-11.33,0,*70
1505743582.63,63482,15.56,73712.0,3.65,-16.41,-11.85,0,*79
1505743583.85,63483,15.56,73712.5,3.63,-15.75,-11.77,0,*77
1505743585.05,63484,15.56,73712.5,3.63,-14.89,-11.23,0,*73
1505743586.28,63485,15.56,73712.3,3.63,-13.87,-10.53,0,*7D
1505743587.48,63486,15.56,73710.8,3.63,-13.43,-10.27,0,*75
1505743588.75,63487,15.56,73712.3,3.61,-12.35,-9.53,0,*4D
1505743589.97,63488,15.56,73710.8,3.63,-11.73,-9.23,0,*46
1505743591.24,63489,15.56,73710.0,3.61,-11.59,-9.15,0,*48
1505743592.46,63490,15.56,73712.3,3.61,-11.45,-8.89,0,*49
1505743593.73,63491,15.56,73712.8,3.61,-11.07,-8.51,0,*4B
1505743594.95,63492,15.56,73710.3,3.61,-11.01,-8.33,0,*4A
1505743596.19,63493,15.56,73710.8,3.61,-10.75,-8.29,0,*42
1505743597.43,63494,15.56,73710.5,3.63,-10.41,-7.91,0,*4C
1505743598.65,63495,15.56,73710.5,3.63,-10.09,-7.65,0,*4A
1505743599.89,63496,15.56,73712.5,3.61,-9.71,-7.39,0,*75
1505743601.13,63497,15.56,73712.8,3.61,-9.11,-6.77,0,*79
1505743602.32,63498,15.56,73712.3,3.63,-8.45,-6.43,0,*73
1505743603.54,63499,15.56,73710.0,3.63,-8.07,-6.09,0,*7A
1505743604.77,63500,15.56,73708.3,3.63,-7.91,-5.77,0,*71
1505743605.98,63501,15.56,73712.3,3.63,-7.77,-5.43,0,*7F
1505743607.19,63502,15.56,73710.8,3.63,-8.03,-5.39,0,*7D
1505743608.42,63503,15.56,73708.5,3.61,-8.63,-5.55,0,*72
1505743609.66,63504,15.56,73714.5,3.63,-9.11,-5.77,0,*73
1505743610.87,63505,15.56,73712.5,3.63,-9.67,-5.69,0,*7C
1505743612.07,63506,15.56,73712.5,3.63,-11.11,-6.59,0,*47
1505743613.28,63507,15.56,73712.3,3.63,-12.83,-7.53,0,*45
1505743614.49,63508,15.56,73712.5,3.63,-13.93,-7.95,0,*40
1505743615.74,63509,15.56,73714.3,3.61,-15.89,-9.01,0,*4D
1505743616.97,63510,15.56,73714.8,3.61,-17.83,-10.23,0,*75
1505743618.21,63511,15.56,73712.3,3.61,-18.59,-10.53,0,*7B
1505743619.46,63512,15.56,73710.5,3.59,-20.35,-11.63,0,*70
1505743620.69,63513,15.56,73710.8,3.59,-20.69,-11.51,0,*79
1505743621.91,63514,15.56,73710.8,3.57,-20.69,-11.19,0,*7C
1505743623.19,63515,15.56,73714.3,3.57,-21.33,-11.67,0,*7A
1505743624.47,63516,15.56,73708.5,3.57,-21.27,-11.73,0,*79
1505743625.73,63517,15.56,73708.3,3.55,-21.83,-12.11,0,*73
1505743626.98,63518,15.56,73714.3,3.53,-22.41,-12.61,0,*70
1505743628.25,63519,15.56,73712.8,3.53,-22.93,-12.71,0,*7F
1505743629.5,63520,15.56,73710.3,3.51,-23.29,-13.29,0,*7B
1505743630.75,63521,15.56,73712.0,3.49,-24.11,-13.93,0,*7E
1505743632.03,63522,15.56,73712.3,3.49,-24.15,-14.05,0,*71
1505743633.31,63523,15.56,73712.0,3.49,-24.11,-14.05,0,*74
1505743634.52,63524,15.56,73714.3,3.43,-24.31,-14.29,0,*75
1505743635.74,63525,15.56,73714.3,3.43,-24.51,-14.43,0,*7E
1505743636.99,63526,15.56,73708.5,3.43,-24.87,-14.79,0,*7F
1505743638.25,63527,15.56,73708.0,3.41,-25.03,-14.69,0,*70
1505743639.47,63528,15.56,73712.5,3.43,-25.03,-14.69,0,*7D
1505743640.7,63529,15.56,73710.3,3.39,-25.49,-15.01,0,*70
1505743641.95,63530,15.56,73712.5,3.41,-25.39,-14.97,0,*7E
1505743643.21,63531,15.56,73710.5,3.39,-25.55,-15.01,0,*74
1505743644.43,63532,15.56,73710.0,3.39,-25.23,-14.97,0,*78
1505743645.63,63533,15.56,73712.3,3.39,-25.23,-14.89,0,*76
1505743646.86,63534,15.56,73710.3,3.39,-25.03,-14.61,0,*75
1505743648.09,63535,15.56,73710.5,3.35,-25.13,-14.79,0,*70
1505743649.36,63536,15.56,73710.5,3.37,-25.29,-14.93,0,*7C
1505743650.61,63537,15.56,73712.8,3.35,-25.29,-14.93,0,*7F
1505743651.84,63538,15.56,73712.3,3.35,-25.29,-14.89,0,*7B
1505743653.07,63539,15.56,73710.0,3.35,-24.77,-14.51,0,*75
1505743654.3,63540,15.56,73708.8,3.33,-24.61,-14.29,0,*75
1505743655.54,63541,15.56,73712.5,3.33,-24.47,-14.29,0,*70
1505743656.82,63542,15.56,73710.5,3.31,-24.87,-14.55,0,*76
1505743658.04,63543,15.56,73714.0,3.31,-24.57,-14.19,0,*72
1505743659.29,63544,15.56,73708.0,3.31,-24.35,-13.97,0,*70
1505743660.57,63545,15.56,73714.8,3.31,-25.03,-14.47,0,*7F
1505743661.85,63546,15.56,73708.5,3.27,-24.41,-14.01,0,*7E
1505743663.11,63547,15.56,73710.8,3.27,-24.15,-13.79,0,*76
1505743664.33,63548,15.56,73712.0,3.27,-23.75,-13.47,0,*75
1505743665.58,63549,15.56,73708.0,3.27,-23.19,-12.93,0,*76
1505743666.81,63550,15.56,73710.3,3.25,-22.97,-12.75,0,*73
1505743668.08,63551,15.56,73708.8,3.19,-23.03,-12.65,0,*70
1505743669.28,63552,15.56,73712.3,3.21,-22.27,-12.25,0,*7B
1505743670.51,63553,15.56,73708.8,3.17,-21.93,-11.89,0,*76
1505743671.76,63554,15.56,73712.3,3.19,-21.33,-11.41,0,*71
1505743672.96,63555,15.56,73710.0,3.17,-20.69,-11.19,0,*7D
1505743674.18,63556,15.56,73708.5,3.17,-19.91,-10.75,0,*78
1505743675.44,63557,15.56,73704.8,3.17,-19.31,-10.71,0,*77
1505743676.69,63558,15.56,73710.3,3.15,-18.35,-10.23,0,*78
1505743677.91,63559,15.56,73710.3,3.13,-17.17,-9.97,0,*47
1505743679.13,63560,15.56,73710.5,3.13,-16.27,-9.79,0,*4F
1505743680.36,63561,15.56,73708.5,3.11,-15.21,-9.23,0,*46
1505743681.63,63562,15.56,73708.3,3.11,-14.05,-8.51,0,*46
1505743682.88,63563,15.56,73708.5,3.11,-13.79,-8.21,0,*4C
1505743684.09,63564,15.56,73710.0,3.11,-13.55,-8.21,0,*45
1505743685.34,63565,15.56,73708.3,3.11,-13.23,-7.99,0,*49
1505743686.6,63566,15.56,73710.8,3.11,-12.65,-7.69,0,*46
1505743687.84,63567,15.56,73712.0,3.11,-12.11,-7.49,0,*46
1505743689.12,63568,15.56,73712.8,3.11,-11.67,-7.43,0,*41
1505743690.38,63569,15.56,73710.8,3.11,-11.37,-7.35,0,*44
1505743691.62,63570,15.56,73710.3,3.15,-11.11,-7.39,0,*40
1505743692.85,63571,15.56,73712.0,3.13,-10.79,-7.23,0,*43
1505743694.08,63572,15.56,73712.0,3.15,-10.49,-7.01,0,*45
1505743695.27,63573,15.56,73708.3,3.13,-10.23,-6.85,0,*43
1505743696.48,63574,15.56,73708.3,3.15,-10.01,-6.73,0,*4B
1505743697.69,63575,15.56,73710.8,3.15,-10.09,-6.59,0,*4A
1505743698.93,63576,15.56,73712.5,3.15,-10.09,-6.63,0,*40
1505743700.15,63577,15.56,73710.3,3.15,-10.15,-6.59,0,*45
1505743701.34,63578,15.56,73710.5,3.13,-10.23,-6.51,0,*41
1505743702.56,63579,15.56,73710.0,3.15,-10.23,-6.35,0,*44
1505743703.77,63580,15.56,73710.8,3.15,-10.27,-6.35,0,*46
1505743704.98,63581,15.56,73710.3,3.15,-10.09,-6.35,0,*4B
1505743706.2,63582,15.56,73708.8,3.17,-9.79,-6.27,0,*76
1505743707.45,63583,15.56,73710.5,3.19,-9.61,-6.23,0,*74
1505743708.66,63584,15.56,73710.3,3.19,-9.93,-6.51,0,*7B
1505743709.84,63585,15.56,73708.5,3.17,-9.89,-6.51,0,*7F
1505743711.06,63586,15.56,73710.3,3.19,-9.71,-6.55,0,*71